Flag Weather past 2 weeks in Akron, Ohio, U.S.A.

Now
35 °F

Mostly cloudy.


Feels Like: 27 °F
Forecast: 31 / 38 °F
Wind: 10 mph from West

Location: Akron Fulton International Airport

Current Time: Nov 25, 2014 at 9:04:04 PM

Latest Report: Nov 25, 2014 at 7:54 PM


Visibility: 10 mi

Pressure: 30.19 "Hg

Humidity: 72%

Dew point: 27 °F

Location of AkronLocation

Historic Weather in Akron — Graph

°F

Akron temperature yesterday

Maximum temperature yesterday: 64 °F (at 11:54 AM)
Minimum temperature yesterday: 39 °F (at 10:54 PM)
Average temperature yesterday: 55 °F

Past Weeks' High & Low Weather Summary

 TemperatureHumidityPressure
High68 °F (Nov 11, 2:54 PM)92% (Nov 17, 1:54 AM)30.52 "Hg (Nov 17, 1:54 AM)
Low11 °F (Nov 18, 7:54 AM)41% (Nov 10, 10:54 PM)29.26 "Hg (Nov 24, 2:54 AM)
Average34 °F65%30.04 "Hg
* Reported Nov 10 7:54 PM — Nov 25 7:54 PM, Akron, Weather by CustomWeather, © 2014

Note: Actual official high and low records may vary slightly from our data, if they occured in-between our weather recording intervals... More about our weather records

Advertising

Akron weather history for previous 24 hours

 ConditionsComfort  
Time TempWeatherWind HumidityBarometerVisibility
7:54 PM
Nov 25
35 °FMostly cloudy.10 mph72%30.19 "Hg10 mi
6:54 PM36 °FMostly cloudy.7 mph70%30.16 "Hg10 mi
5:54 PM37 °FOvercast.10 mph67%30.13 "Hg10 mi
4:54 PM38 °FOvercast.9 mph63%30.11 "Hg10 mi
3:54 PM38 °FOvercast.10 mph63%30.10 "Hg10 mi
2:54 PM38 °FOvercast.14 mph63%30.08 "Hg10 mi
1:54 PM38 °FOvercast.16 mph63%30.07 "Hg10 mi
12:54 PM38 °FOvercast.14 mph68%30.05 "Hg10 mi
11:54 AM39 °FOvercast.14 mph62%30.04 "Hg10 mi
10:54 AM39 °FOvercast.21 mph60%30.03 "Hg10 mi
9:54 AM39 °FOvercast.18 mph62%30.01 "Hg10 mi
8:54 AM38 °FOvercast.15 mph65%29.98 "Hg10 mi
7:54 AM37 °FOvercast.14 mph67%29.97 "Hg10 mi
6:54 AM37 °FOvercast.21 mph65%29.95 "Hg10 mi
5:54 AM37 °FOvercast.13 mph65%29.93 "Hg10 mi
4:54 AM38 °FOvercast.13 mph65%29.91 "Hg10 mi
3:54 AM37 °FPassing clouds.14 mph67%29.89 "Hg10 mi
2:54 AM37 °FClear.13 mph67%29.88 "Hg10 mi
1:54 AM37 °FClear.12 mph65%29.86 "Hg10 mi
12:54 AM38 °FClear.14 mph63%29.83 "Hg10 mi
11:54 PM
Nov 24
39 °FPassing clouds.13 mph60%29.82 "Hg10 mi
10:54 PM39 °FClear.13 mph60%29.80 "Hg10 mi
9:54 PM43 °FPassing clouds.25 mph53%29.78 "Hg10 mi
Weather by CustomWeather, © 2014

See weather overviewHow to use our weather pages